#timestamp,LO_Frequency,Hit,StdDev 
1582171215.6,286046996.1,N
1582171235.4,286046992.9,N
1582171255.2,286046992.8,N
1582171275.1,286046992.9,N
1582171276.0,286046992.9,N
1582171295.8,286046991.2,Y
1582171315.7,286046995.0,P
1582171335.5,286047000.8,P
1582171355.3,286047002.2,N
1582171375.2,286047004.8,N
1582171395.0,286047009.9,N
1582171395.9,286047009.9,N
1582171415.7,286047010.0,N
1582171435.6,286047013.1,N
1582171455.4,286047016.5,N
1582171475.3,286047018.4,N
1582171495.1,286047019.2,N
1582171496.0,286047019.2,N
1582171515.8,286047019.0,N
1582171535.7,286047021.4,N
1582171555.5,286047024.3,N
1582171575.3,286047024.6,N
1582171595.2,286047019.4,N
1582171615.0,286047024.4,N
1582171615.9,286047024.4,N
1582171635.8,286047023.5,N
1582171655.6,286047024.9,N
1582171675.4,286047025.1,N
1582171695.3,286047020.5,N
1582171715.1,286047028.4,Y
1582171735.9,286047009.7,P
1582171755.7,286047007.7,N
1582171775.5,286047008.0,N
1582171795.4,286047007.7,N
1582171815.2,286047012.2,Y
1582171835.0,286047000.7,P
1582171836.0,286047000.7,N
1582171855.8,286047000.9,N
1582171875.6,286047000.0,N
1582171895.5,286047000.6,N
1582171915.3,286046999.8,N
1582171935.1,286047001.3,N
1582171955.9,286047006.9,N
1582171975.7,286047008.0,N
1582171995.6,286047010.3,N
1582172015.4,286047010.3,N
1582172035.2,286047008.1,N
1582172055.1,286047012.3,N
1582172056.0,286047012.3,N
1582172075.8,286047009.4,N
1582172095.7,286047008.8,N
1582172115.5,286047005.1,N
1582172135.3,286047007.5,N
1582172155.2,286047005.5,N
1582172175.0,286047005.1,N
1582172175.9,286047005.1,N
1582172195.7,286047007.6,N
1582172215.6,286047008.5,N
1582172235.4,286047007.0,N
1582172255.3,286047005.8,N
1582172275.1,286047006.0,N
1582172295.8,286047008.6,N
1582172315.7,286047004.9,N
1582172335.5,286047003.7,N
1582172355.4,286047003.2,N
1582172375.2,286047006.0,N
1582172395.0,286047001.7,N
1582172395.9,286047001.7,N
1582172415.8,286047004.1,N
1582172435.6,286047003.7,N
1582172455.4,286047005.5,N
1582172475.3,286047002.3,N
1582172495.1,286047003.7,N
1582172515.9,286047006.4,N
1582172535.7,286047005.6,N
1582172555.5,286047004.2,N
1582172575.4,286047002.7,N
1582172595.2,286046993.3,N
1582172615.0,286047004.5,N
1582172615.9,286047004.5,N
1582172635.8,286047003.4,N
1582172655.6,286047003.3,N
1582172675.5,286047000.2,N
1582172725.3,286046999.5,E
1582172735.2,286046997.0,N
1582172755.1,286047000.5,P
1582172756.0,286047000.5,N
1582172775.8,286047000.3,N
1582172795.7,286047000.4,N
1582172815.5,286046998.8,N
1582172835.3,286046994.9,Y
1582172855.2,286047003.2,P
1582172875.0,286046992.1,P
1582172875.9,286046992.1,N
1582172895.8,286047003.8,N
1582172915.6,286047000.8,N
1582172935.4,286046996.9,N
1582172955.3,286046998.3,N
1582172975.1,286046997.5,N
1582172995.8,286046990.5,N
1582173015.7,286046994.5,N
1582173035.5,286046996.2,N
1582173055.4,286046991.2,N
1582173075.2,286046992.5,N
1582173095.0,286046993.2,N
1582173095.9,286046993.2,N
1582173115.8,286046992.4,N
1582173135.6,286046992.3,N
1582173155.4,286046998.8,N
1582173175.3,286046995.2,N
1582173195.1,286046995.4,N
1582173215.9,286046999.5,N
1582173235.7,286046998.1,N
1582173255.5,286046999.0,N
1582173275.4,286046998.3,N
1582173295.2,286047000.5,N
1582173315.0,286046997.4,N
1582173315.9,286046997.4,N
1582173335.8,286047000.3,N
1582173355.6,286046999.6,N
1582173375.4,286046999.3,N
1582173395.3,286046987.9,Y
1582173415.1,286046990.6,P
1582173435.9,286047001.6,N
1582173455.7,286047004.1,N
1582173475.5,286047004.0,N
1582173495.4,286047000.4,N
1582173515.2,286046998.3,N
1582173535.0,286046998.8,N
1582173536.0,286046998.8,N
1582173555.8,286047000.3,N
1582173575.6,286046998.2,N
1582173595.5,286046999.5,N
1582173615.3,286047000.6,N
1582173635.1,286046998.4,N
1582173655.9,286047000.9,N
1582173675.7,286047002.4,N
1582173695.5,286047001.3,N
1582173715.4,286047000.2,N
1582173735.2,286046996.6,N
1582173755.1,286046996.8,N
1582173756.0,286046996.8,N
1582173775.8,286047001.5,N
1582173795.6,286046999.2,N
1582173815.5,286046996.2,N
1582173835.3,286046979.3,Y
1582173855.1,286047003.8,P
1582173875.9,286047003.2,N
1582173895.7,286047004.1,N
1582173915.6,286047003.4,N
1582173935.4,286047007.5,Y
1582173955.2,286047004.2,P
1582173975.1,286046997.6,P
1582173976.0,286046997.6,N
1582173995.8,286046996.8,N
1582174015.7,286046996.9,N
1582174035.5,286046998.1,N
1582174055.3,286046997.1,N
1582174075.2,286046999.4,N
1582174095.9,286047002.4,N
1582174115.7,286047001.9,N
1582174135.6,286047001.8,N
1582174155.4,286047000.2,N
1582174175.2,286046999.2,N
1582174195.1,286046999.1,N
1582174196.0,286046999.1,N
1582174215.8,286046999.6,N
1582174235.7,286046998.9,N
1582174255.5,286046997.7,N
1582174275.3,286046999.1,N
1582174295.2,286046997.4,N
1582174315.0,286046999.5,N
1582174315.9,286046999.5,N
1582174335.7,286046996.6,N
1582174355.6,286046995.2,N
1582174375.4,286046995.0,N
1582174395.3,286046997.9,N
1582174415.1,286046997.4,N
1582174416.0,286046997.4,N
1582174435.8,286046995.5,N
1582174455.7,286046993.5,N
1582174475.5,286046995.0,N
1582174495.4,286046994.4,N
1582174515.2,286046995.8,N
1582174535.0,286046994.3,N
1582174535.9,286046994.3,N
1582174555.8,286046991.8,Y
1582174575.6,286046995.1,P
1582174595.5,286046994.7,P
1582174615.3,286046996.4,N
1582174635.1,286046996.1,Y
1582174655.9,286047004.0,P
1582174675.7,286047001.0,N
1582174695.5,286047001.9,N
1582174715.4,286047001.6,N
1582174735.2,286047005.7,N
1582174755.1,286047003.2,N
1582174756.0,286047003.2,N
1582174775.8,286047002.4,N
1582174795.6,286047005.6,N
